Time,TemperatureF,DewpointF,PressureIn,WindDirection,WindDirectionDegrees,WindSpeedMPH,WindSpeedGustMPH,Humidity,HourlyPrecipIn,Conditions,Clouds,dailyrainin,SoftwareType,DateUTC
2013-06-01 00:01:00,60.0,56.0,-100.00,NNE,31,0.0,1.0,87,-99.99,,,-99.99,,2013-06-01 07:01:00,
2013-06-01 00:11:00,60.0,56.0,-100.00,NNE,16,1.0,2.0,86,-99.99,,,-99.99,,2013-06-01 07:11:00,
2013-06-01 00:21:00,60.0,55.0,-100.00,NE,45,1.0,3.0,84,-99.99,,,-99.99,,2013-06-01 07:21:00,
2013-06-01 00:31:00,60.0,55.0,-100.00,NE,47,1.0,3.0,83,-99.99,,,-99.99,,2013-06-01 07:31:00,
2013-06-01 00:42:00,60.0,54.0,-100.00,NE,55,1.0,2.0,82,-99.99,,,-99.99,,2013-06-01 07:42:00,
2013-06-01 00:52:00,60.0,54.0,-100.00,NE,55,1.0,2.0,82,-99.99,,,-99.99,,2013-06-01 07:52:00,
2013-06-01 01:02:00,59.0,54.0,-100.00,ESE,116,0.0,1.0,82,-99.99,,,-99.99,,2013-06-01 08:02:00,
2013-06-01 01:11:00,59.0,54.0,-100.00,ENE,67,1.0,3.0,83,-99.99,,,-99.99,,2013-06-01 08:11:00,
2013-06-01 01:21:00,58.0,53.0,-100.00,NE,55,1.0,2.0,83,-99.99,,,-99.99,,2013-06-01 08:21:00,
2013-06-01 01:32:00,58.0,53.0,-100.00,East,89,0.0,1.0,83,-99.99,,,-99.99,,2013-06-01 08:32:00,
2013-06-01 01:42:00,58.0,53.0,-100.00,ENE,77,2.0,3.0,84,-99.99,,,-99.99,,2013-06-01 08:42:00,
2013-06-01 01:51:00,58.0,53.0,-100.00,ENE,66,2.0,4.0,84,-99.99,,,-99.99,,2013-06-01 08:51:00,
2013-06-01 02:01:00,59.0,54.0,-100.00,ENE,66,2.0,4.0,83,-99.99,,,-99.99,,2013-06-01 09:01:00,
2013-06-01 02:12:00,59.0,54.0,-100.00,ENE,72,1.0,3.0,82,-99.99,,,-99.99,,2013-06-01 09:12:00,
2013-06-01 02:21:00,60.0,54.0,-100.00,NNE,20,1.0,3.0,82,-99.99,,,-99.99,,2013-06-01 09:21:00,
2013-06-01 02:30:00,61.0,55.0,-100.00,ESE,113,0.0,1.0,82,-99.99,,,-99.99,,2013-06-01 09:30:00,
2013-06-01 02:33:00,60.0,54.0,-100.00,WNW,282,0.0,1.0,81,-99.99,,,-99.99,,2013-06-01 09:33:00,
2013-06-01 02:42:00,60.0,54.0,-100.00,WNW,300,0.0,1.0,82,-99.99,,,-99.99,,2013-06-01 09:42:00,
2013-06-01 02:53:00,61.0,55.0,-100.00,ESE,113,0.0,1.0,82,-99.99,,,-99.99,,2013-06-01 09:53:00,
2013-06-01 03:02:00,61.0,55.0,-100.00,ESE,113,0.0,1.0,82,-99.99,,,-99.99,,2013-06-01 10:02:00,
2013-06-01 03:12:00,61.0,55.0,-100.00,ESE,113,0.0,1.0,82,-99.99,,,-99.99,,2013-06-01 10:12:00,
2013-06-01 03:22:00,61.0,55.0,-100.00,ESE,113,0.0,1.0,82,-99.99,,,-99.99,,2013-06-01 10:22:00,
2013-06-01 03:42:00,61.0,57.0,-100.00,SSW,200,1.0,3.0,88,-99.99,,,-99.99,,2013-06-01 10:42:00,
2013-06-01 03:52:00,60.0,56.0,-100.00,South,175,1.0,2.0,88,-99.99,,,-99.99,,2013-06-01 10:52:00,
2013-06-01 04:02:00,60.0,57.0,-100.00,South,182,0.0,1.0,89,-99.99,,,-99.99,,2013-06-01 11:02:00,
2013-06-01 04:11:00,60.0,57.0,-100.00,South,185,0.0,1.0,89,-99.99,,,-99.99,,2013-06-01 11:11:00,
2013-06-01 04:21:00,61.0,58.0,-100.00,SE,127,1.0,1.0,89,-99.99,,,-99.99,,2013-06-01 11:21:00,
2013-06-01 04:32:00,60.0,57.0,-100.00,NE,42,1.0,2.0,89,-99.99,,,-99.99,,2013-06-01 11:32:00,
2013-06-01 04:42:00,60.0,57.0,-100.00,West,279,1.0,2.0,89,-99.99,,,-99.99,,2013-06-01 11:42:00,
2013-06-01 04:52:00,60.0,57.0,-100.00,West,279,1.0,2.0,89,-99.99,,,-99.99,,2013-06-01 11:52:00,
2013-06-01 05:01:00,60.0,57.0,-100.00,SW,233,1.0,2.0,89,-99.99,,,-99.99,,2013-06-01 12:01:00,
2013-06-01 05:11:00,60.0,57.0,-100.00,NW,321,1.0,2.0,89,-99.99,,,-99.99,,2013-06-01 12:11:00,
2013-06-01 05:21:00,60.0,57.0,-100.00,NNW,348,1.0,2.0,89,-99.99,,,-99.99,,2013-06-01 12:21:00,
2013-06-01 05:32:00,60.0,57.0,-100.00,ENE,62,1.0,2.0,89,-99.99,,,-99.99,,2013-06-01 12:32:00,
2013-06-01 05:41:00,60.0,57.0,-100.00,NE,46,1.0,1.0,89,-99.99,,,-99.99,,2013-06-01 12:41:00,
2013-06-01 05:52:00,60.0,57.0,-100.00,NE,46,1.0,1.0,89,-99.99,,,-99.99,,2013-06-01 12:52:00,
2013-06-01 06:01:00,60.0,57.0,-100.00,North,358,0.0,1.0,90,-99.99,,,-99.99,,2013-06-01 13:01:00,
2013-06-01 06:11:00,60.0,57.0,-100.00,NNE,28,0.0,1.0,91,-99.99,,,-99.99,,2013-06-01 13:11:00,
2013-06-01 06:22:00,60.0,57.0,-100.00,NE,54,1.0,4.0,91,-99.99,,,-99.99,,2013-06-01 13:22:00,
2013-06-01 06:32:00,60.0,57.0,-100.00,ENE,63,2.0,4.0,91,-99.99,,,-99.99,,2013-06-01 13:32:00,
2013-06-01 06:42:00,60.0,57.0,-100.00,ENE,60,1.0,2.0,90,-99.99,,,-99.99,,2013-06-01 13:42:00,
2013-06-01 06:52:00,60.0,57.0,-100.00,NNW,333,1.0,2.0,90,-99.99,,,-99.99,,2013-06-01 13:52:00,
2013-06-01 07:01:00,60.0,57.0,-100.00,NNE,24,1.0,2.0,89,-99.99,,,-99.99,,2013-06-01 14:01:00,
2013-06-01 07:11:00,60.0,56.0,-100.00,NE,42,1.0,2.0,88,-99.99,,,-99.99,,2013-06-01 14:11:00,
2013-06-01 07:21:00,61.0,57.0,-100.00,ENE,59,1.0,3.0,87,-99.99,,,-99.99,,2013-06-01 14:21:00,
2013-06-01 07:32:00,61.0,57.0,-100.00,ENE,66,2.0,6.0,87,-99.99,,,-99.99,,2013-06-01 14:32:00,
2013-06-01 07:42:00,61.0,57.0,-100.00,ENE,59,2.0,5.0,87,-99.99,,,-99.99,,2013-06-01 14:42:00,
2013-06-01 07:52:00,61.0,57.0,-100.00,ENE,62,2.0,5.0,87,-99.99,,,-99.99,,2013-06-01 14:52:00,
2013-06-01 08:01:00,62.0,58.0,-100.00,ENE,60,1.0,3.0,86,-99.99,,,-99.99,,2013-06-01 15:01:00,
2013-06-01 08:11:00,62.0,57.0,-100.00,NE,52,1.0,4.0,84,-99.99,,,-99.99,,2013-06-01 15:11:00,
2013-06-01 08:21:00,63.0,57.0,-100.00,North,5,1.0,3.0,82,-99.99,,,-99.99,,2013-06-01 15:21:00,
2013-06-01 08:33:00,64.0,58.0,-100.00,SW,224,1.0,4.0,80,-99.99,,,-99.99,,2013-06-01 15:33:00,
2013-06-01 08:43:00,65.0,58.0,-100.00,WSW,258,3.0,7.0,78,-99.99,,,-99.99,,2013-06-01 15:43:00,
2013-06-01 08:53:00,65.0,58.0,-100.00,West,263,2.0,6.0,77,-99.99,,,-99.99,,2013-06-01 15:53:00,
2013-06-01 09:03:00,66.0,58.0,-100.00,WSW,252,2.0,5.0,76,-99.99,,,-99.99,,2013-06-01 16:03:00,
2013-06-01 09:12:00,66.0,58.0,-100.00,West,263,2.0,6.0,75,-99.99,,,-99.99,,2013-06-01 16:12:00,
2013-06-01 09:22:00,67.0,58.0,-100.00,SSW,208,1.0,4.0,74,-99.99,,,-99.99,,2013-06-01 16:22:00,
2013-06-01 09:33:00,67.0,58.0,-100.00,SW,225,2.0,5.0,73,-99.99,,,-99.99,,2013-06-01 16:33:00,
2013-06-01 09:42:00,68.0,58.0,-100.00,NNW,348,1.0,3.0,70,-99.99,,,-99.99,,2013-06-01 16:42:00,
2013-06-01 09:52:00,70.0,59.0,-100.00,South,188,1.0,4.0,67,-99.99,,,-99.99,,2013-06-01 16:52:00,
2013-06-01 10:02:00,71.0,58.0,-100.00,SSW,196,2.0,4.0,64,-99.99,,,-99.99,,2013-06-01 17:02:00,
2013-06-01 10:11:00,71.0,58.0,-100.00,SW,216,1.0,4.0,63,-99.99,,,-99.99,,2013-06-01 17:11:00,
2013-06-01 10:21:00,73.0,59.0,-100.00,West,278,1.0,3.0,61,-99.99,,,-99.99,,2013-06-01 17:21:00,
2013-06-01 10:32:00,74.0,58.0,-100.00,West,270,2.0,7.0,58,-99.99,,,-99.99,,2013-06-01 17:32:00,
2013-06-01 10:42:00,74.0,58.0,-100.00,SSW,200,2.0,8.0,57,-99.99,,,-99.99,,2013-06-01 17:42:00,
2013-06-01 10:52:00,75.0,58.0,-100.00,SSE,148,1.0,3.0,56,-99.99,,,-99.99,,2013-06-01 17:52:00,
2013-06-01 11:01:00,77.0,58.0,-100.00,SW,216,2.0,5.0,52,-99.99,,,-99.99,,2013-06-01 18:01:00,
2013-06-01 11:11:00,77.0,58.0,-100.00,WSW,241,2.0,7.0,52,-99.99,,,-99.99,,2013-06-01 18:11:00,
2013-06-01 11:21:00,78.0,58.0,-100.00,SSW,208,1.0,7.0,50,-99.99,,,-99.99,,2013-06-01 18:21:00,
2013-06-01 11:32:00,78.0,58.0,-100.00,South,171,1.0,5.0,50,-99.99,,,-99.99,,2013-06-01 18:32:00,
2013-06-01 11:41:00,78.0,57.0,-100.00,SSW,199,2.0,7.0,49,-99.99,,,-99.99,,2013-06-01 18:41:00,
2013-06-01 11:51:00,78.0,57.0,-100.00,SSW,199,2.0,7.0,49,-99.99,,,-99.99,,2013-06-01 18:51:00,
2013-06-01 12:01:00,80.0,58.0,-100.00,SSW,209,3.0,6.0,47,-99.99,,,-99.99,,2013-06-01 19:01:00,
2013-06-01 12:11:00,80.0,58.0,-100.00,SW,227,4.0,8.0,47,-99.99,,,-99.99,,2013-06-01 19:11:00,
2013-06-01 12:21:00,82.0,59.0,-100.00,WSW,240,4.0,8.0,45,-99.99,,,-99.99,,2013-06-01 19:21:00,
2013-06-01 12:32:00,81.0,58.0,-100.00,SW,232,4.0,9.0,46,-99.99,,,-99.99,,2013-06-01 19:32:00,
2013-06-01 12:41:00,81.0,59.0,-100.00,WSW,255,4.0,9.0,47,-99.99,,,-99.99,,2013-06-01 19:41:00,
2013-06-01 12:52:00,82.0,59.0,-100.00,WSW,249,4.0,9.0,46,-99.99,,,-99.99,,2013-06-01 19:52:00,
2013-06-01 13:01:00,82.0,59.0,-100.00,WSW,246,6.0,11.0,45,-99.99,,,-99.99,,2013-06-01 20:01:00,
2013-06-01 13:11:00,82.0,59.0,-100.00,SW,236,5.0,10.0,45,-99.99,,,-99.99,,2013-06-01 20:11:00,
2013-06-01 13:21:00,82.0,59.0,-100.00,SW,234,5.0,9.0,45,-99.99,,,-99.99,,2013-06-01 20:21:00,
2013-06-01 13:32:00,83.0,59.0,-100.00,WSW,255,4.0,10.0,45,-99.99,,,-99.99,,2013-06-01 20:32:00,
2013-06-01 13:41:00,83.0,59.0,-100.00,SW,235,4.0,9.0,45,-99.99,,,-99.99,,2013-06-01 20:41:00,
2013-06-01 13:51:00,82.0,59.0,-100.00,WSW,244,5.0,10.0,46,-99.99,,,-99.99,,2013-06-01 20:51:00,
2013-06-01 14:01:00,82.0,59.0,-100.00,SW,221,4.0,8.0,46,-99.99,,,-99.99,,2013-06-01 21:01:00,
2013-06-01 14:11:00,82.0,59.0,-100.00,WSW,239,5.0,10.0,46,-99.99,,,-99.99,,2013-06-01 21:11:00,
2013-06-01 14:21:00,82.0,60.0,-100.00,SW,225,4.0,8.0,47,-99.99,,,-99.99,,2013-06-01 21:21:00,
2013-06-01 14:33:00,81.0,59.0,-100.00,SW,229,4.0,10.0,47,-99.99,,,-99.99,,2013-06-01 21:33:00,
2013-06-01 14:42:00,81.0,59.0,-100.00,WSW,243,5.0,10.0,47,-99.99,,,-99.99,,2013-06-01 21:42:00,
2013-06-01 14:53:00,81.0,59.0,-100.00,WSW,252,5.0,10.0,48,-99.99,,,-99.99,,2013-06-01 21:53:00,
2013-06-01 15:02:00,81.0,59.0,-100.00,WSW,244,5.0,10.0,47,-99.99,,,-99.99,,2013-06-01 22:02:00,
2013-06-01 15:12:00,80.0,59.0,-100.00,WSW,244,7.0,12.0,49,-99.99,,,-99.99,,2013-06-01 22:12:00,
2013-06-01 15:22:00,79.0,59.0,-100.00,WSW,244,6.0,10.0,51,-99.99,,,-99.99,,2013-06-01 22:22:00,
2013-06-01 15:33:00,78.0,59.0,-100.00,WSW,246,6.0,11.0,52,-99.99,,,-99.99,,2013-06-01 22:33:00,
2013-06-01 15:42:00,77.0,59.0,-100.00,WSW,240,5.0,10.0,54,-99.99,,,-99.99,,2013-06-01 22:42:00,
2013-06-01 15:52:00,77.0,59.0,-100.00,SW,228,5.0,9.0,54,-99.99,,,-99.99,,2013-06-01 22:52:00,
2013-06-01 16:02:00,77.0,59.0,-100.00,SW,236,5.0,9.0,53,-99.99,,,-99.99,,2013-06-01 23:02:00,
2013-06-01 16:11:00,77.0,59.0,-100.00,SW,225,4.0,9.0,54,-99.99,,,-99.99,,2013-06-01 23:11:00,
2013-06-01 16:21:00,76.0,59.0,-100.00,WSW,239,5.0,10.0,56,-99.99,,,-99.99,,2013-06-01 23:21:00,
2013-06-01 16:32:00,75.0,59.0,-100.00,WSW,238,6.0,11.0,57,-99.99,,,-99.99,,2013-06-01 23:32:00,
2013-06-01 16:42:00,75.0,59.0,-100.00,WSW,240,5.0,10.0,57,-99.99,,,-99.99,,2013-06-01 23:42:00,
2013-06-01 16:52:00,74.0,59.0,-100.00,WSW,248,6.0,11.0,59,-99.99,,,-99.99,,2013-06-01 23:52:00,
2013-06-01 17:02:00,74.0,59.0,-100.00,WSW,246,6.0,12.0,59,-99.99,,,-99.99,,2013-06-02 00:02:00,
2013-06-01 17:11:00,74.0,59.0,-100.00,WSW,242,5.0,9.0,59,-99.99,,,-99.99,,2013-06-02 00:11:00,
2013-06-01 17:21:00,74.0,59.0,-100.00,SW,215,4.0,9.0,60,-99.99,,,-99.99,,2013-06-02 00:21:00,
2013-06-01 17:31:00,73.0,59.0,-100.00,SSW,193,2.0,7.0,61,-99.99,,,-99.99,,2013-06-02 00:31:00,
2013-06-01 17:41:00,73.0,59.0,-100.00,SSW,193,2.0,9.0,62,-99.99,,,-99.99,,2013-06-02 00:41:00,
2013-06-01 17:51:00,72.0,59.0,-100.00,South,182,2.0,7.0,64,-99.99,,,-99.99,,2013-06-02 00:51:00,
2013-06-01 18:01:00,71.0,59.0,-100.00,SSW,198,2.0,7.0,65,-99.99,,,-99.99,,2013-06-02 01:01:00,
2013-06-01 18:11:00,71.0,59.0,-100.00,South,186,2.0,7.0,66,-99.99,,,-99.99,,2013-06-02 01:11:00,
2013-06-01 18:21:00,70.0,59.0,-100.00,SSW,207,4.0,9.0,68,-99.99,,,-99.99,,2013-06-02 01:21:00,
2013-06-01 18:32:00,69.0,59.0,-100.00,South,188,2.0,7.0,70,-99.99,,,-99.99,,2013-06-02 01:32:00,
2013-06-01 18:41:00,69.0,59.0,-100.00,SSW,192,2.0,6.0,70,-99.99,,,-99.99,,2013-06-02 01:41:00,
2013-06-01 18:52:00,68.0,59.0,-100.00,SW,215,4.0,9.0,72,-99.99,,,-99.99,,2013-06-02 01:52:00,
2013-06-01 19:01:00,67.0,59.0,-100.00,SW,227,4.0,8.0,75,-99.99,,,-99.99,,2013-06-02 02:01:00,
2013-06-01 19:12:00,66.0,58.0,-100.00,SW,218,3.0,6.0,76,-99.99,,,-99.99,,2013-06-02 02:12:00,
2013-06-01 19:21:00,66.0,58.0,-100.00,South,191,2.0,5.0,76,-99.99,,,-99.99,,2013-06-02 02:21:00,
2013-06-01 19:32:00,66.0,59.0,-100.00,SSW,203,2.0,4.0,77,-99.99,,,-99.99,,2013-06-02 02:32:00,
2013-06-01 19:41:00,65.0,58.0,-100.00,SW,214,1.0,4.0,78,-99.99,,,-99.99,,2013-06-02 02:41:00,
2013-06-01 19:51:00,65.0,58.0,-100.00,SW,216,2.0,4.0,78,-99.99,,,-99.99,,2013-06-02 02:51:00,
2013-06-01 20:01:00,65.0,58.0,-100.00,SSW,199,1.0,3.0,79,-99.99,,,-99.99,,2013-06-02 03:01:00,
2013-06-01 20:11:00,65.0,58.0,-100.00,SSW,193,1.0,2.0,79,-99.99,,,-99.99,,2013-06-02 03:11:00,
2013-06-01 20:21:00,64.0,58.0,-100.00,SSW,203,1.0,3.0,80,-99.99,,,-99.99,,2013-06-02 03:21:00,
2013-06-01 20:33:00,64.0,58.0,-100.00,SW,214,1.0,3.0,81,-99.99,,,-99.99,,2013-06-02 03:33:00,
2013-06-01 20:43:00,64.0,58.0,-100.00,SW,215,1.0,3.0,81,-99.99,,,-99.99,,2013-06-02 03:43:00,
2013-06-01 20:52:00,64.0,58.0,-100.00,SSW,209,1.0,2.0,82,-99.99,,,-99.99,,2013-06-02 03:52:00,
2013-06-01 21:02:00,63.0,57.0,-100.00,South,184,0.0,1.0,82,-99.99,,,-99.99,,2013-06-02 04:02:00,
2013-06-01 21:13:00,63.0,57.0,-100.00,SSE,155,0.0,1.0,82,-99.99,,,-99.99,,2013-06-02 04:13:00,
2013-06-01 21:23:00,62.0,56.0,-100.00,ESE,109,0.0,1.0,81,-99.99,,,-99.99,,2013-06-02 04:23:00,
2013-06-01 21:33:00,62.0,56.0,-100.00,East,95,0.0,1.0,82,-99.99,,,-99.99,,2013-06-02 04:33:00,
2013-06-01 21:42:00,62.0,57.0,-100.00,ESE,104,0.0,1.0,83,-99.99,,,-99.99,,2013-06-02 04:42:00,
2013-06-01 21:52:00,61.0,55.0,-100.00,ESE,113,0.0,1.0,82,-99.99,,,-99.99,,2013-06-02 04:52:00,
2013-06-01 22:02:00,61.0,56.0,-100.00,SSW,201,0.0,1.0,83,-99.99,,,-99.99,,2013-06-02 05:02:00,
2013-06-01 22:11:00,61.0,56.0,-100.00,South,170,0.0,1.0,84,-99.99,,,-99.99,,2013-06-02 05:11:00,
2013-06-01 22:22:00,61.0,56.0,-100.00,East,93,0.0,1.0,85,-99.99,,,-99.99,,2013-06-02 05:22:00,
2013-06-01 22:32:00,61.0,57.0,-100.00,SE,124,0.0,1.0,86,-99.99,,,-99.99,,2013-06-02 05:32:00,
2013-06-01 22:42:00,62.0,58.0,-100.00,SSE,166,0.0,2.0,86,-99.99,,,-99.99,,2013-06-02 05:42:00,
2013-06-01 22:51:00,62.0,57.0,-100.00,SSW,203,0.0,1.0,85,-99.99,,,-99.99,,2013-06-02 05:51:00,
2013-06-01 23:01:00,62.0,58.0,-100.00,SSE,149,0.0,1.0,86,-99.99,,,-99.99,,2013-06-02 06:01:00,
2013-06-01 23:12:00,62.0,58.0,-100.00,SSE,159,1.0,3.0,86,-99.99,,,-99.99,,2013-06-02 06:12:00,
2013-06-01 23:21:00,63.0,59.0,-100.00,SSE,147,1.0,1.0,86,-99.99,,,-99.99,,2013-06-02 06:21:00,
2013-06-01 23:31:00,62.0,58.0,-100.00,SSE,159,1.0,1.0,86,-99.99,,,-99.99,,2013-06-02 06:31:00,
2013-06-01 23:41:00,62.0,58.0,-100.00,WSW,250,1.0,2.0,87,-99.99,,,-99.99,,2013-06-02 06:41:00,
2013-06-01 23:51:00,62.0,58.0,-100.00,West,279,1.0,1.0,88,-99.99,,,-99.99,,2013-06-02 06:51:00,